Weather History for PAEN - October, 2013

Change the Weather History Date:

Tuesday, October 22, 2013

  Actual Average Record
Temperature  
Mean Temperature 40 °F -  
Max Temperature 46 °F 39 °F 59 °F (1957)
Min Temperature 35 °F 24 °F 0 °F (1996)
Degree Days  
Heating Degree Days 25    
Moisture  
Dew Point 37 °F    
Average Humidity 89    
Maximum Humidity 100    
Minimum Humidity 71    
Precipitation  
Precipitation 0.04 in - - ()
Sea Level Pressure  
Sea Level Pressure 30.13 in    
Wind  
Wind Speed 7 mph (SSE)    
Max Wind Speed 13 mph    
Max Gust Speed -    
Visibility 10 miles    
Events Rain    
Averages and records for this station are not official NWS values.
T = Trace of Precipitation, MM = Missing Value Source: NWS Daily Summary

Daily Weather History Graph

Daily Weather History Graph

Search for Another Location

Airport or City:

Trip Planner

Search our weather history database for the weather conditions in past years. The results will help you decide how hot, cold, wet, or windy it might be!

Date:

Astronomy

Oct. 22, 2013 Rise Set
Actual Time 9:04 AM AKDT 6:32 PM AKDT
Civil Twilight 8:20 AM AKDT 7:16 PM AKDT
Nautical Twilight 7:31 AM AKDT 8:06 PM AKDT
Astronomical Twilight 6:42 AM AKDT 8:54 PM AKDT
Moon 8:35 PM AKDT (10/22) 1:28 PM AKDT (10/22)
Length of Visible Light 10h 56m
Length of Day
9h 27m
Waning Gibbous, 86% of the Moon is Illuminated
Oct 22
Waning Gibbous
Oct 26
Last Quarter
Nov 3
New
Nov 9
First Quarter
Nov 17
Full

Hourly Weather History & Observations

Time (AKDT) Temp. Windchill Dew Point Humidity Pressure Visibility Wind Dir Wind Speed Gust Speed Precip Events Conditions
12:53 AM 37.9 °F 33.5 °F 34.0 °F 86% 30.03 in 10.0 mi NE 5.8 mph - N/A   Overcast
1:53 AM 39.0 °F 35.7 °F 35.1 °F 86% 30.06 in 10.0 mi SSE 4.6 mph - 0.00 in   Overcast
2:53 AM 39.9 °F 35.8 °F 37.0 °F 89% 30.08 in 10.0 mi SSE 5.8 mph - 0.00 in Rain Light Rain
3:43 AM 39.2 °F 35.0 °F 35.6 °F 87% 30.08 in 10.0 mi SSE 5.8 mph - 0.00 in   Overcast
3:53 AM 39.9 °F 34.5 °F 36.0 °F 86% 30.09 in 10.0 mi SSE 8.1 mph - 0.00 in   Overcast
4:53 AM 39.9 °F 35.1 °F 37.0 °F 89% 30.11 in 10.0 mi SSE 6.9 mph - 0.00 in   Overcast
5:53 AM 39.9 °F 33.9 °F 37.0 °F 89% 30.12 in 10.0 mi SSE 9.2 mph - N/A   Overcast
6:44 AM 39.2 °F 32.0 °F 37.4 °F 93% 30.11 in 10.0 mi SE 11.5 mph - 0.01 in   Overcast
6:53 AM 39.9 °F 32.9 °F 37.0 °F 89% 30.13 in 10.0 mi SSE 11.5 mph - 0.01 in   Overcast
7:39 AM 39.2 °F 32.0 °F 37.4 °F 93% 30.13 in 10.0 mi SSE 11.5 mph - N/A   Overcast
7:53 AM 39.9 °F 32.9 °F 37.9 °F 93% 30.14 in 10.0 mi SSE 11.5 mph - N/A   Overcast
8:03 AM 39.2 °F 32.0 °F 37.4 °F 93% 30.14 in 10.0 mi South 11.5 mph - N/A   Overcast
8:21 AM 39.2 °F 31.6 °F 37.4 °F 93% 30.14 in 10.0 mi South 12.7 mph - N/A   Overcast
8:53 AM 39.9 °F 33.9 °F 37.9 °F 93% 30.16 in 10.0 mi South 9.2 mph - N/A   Overcast
9:53 AM 39.0 °F 34.0 °F 37.0 °F 93% 30.17 in 10.0 mi SSE 6.9 mph - N/A   Overcast
10:53 AM 39.9 °F 35.8 °F 37.9 °F 93% 30.18 in 9.0 mi SSE 5.8 mph - 0.02 in Rain Light Rain
11:53 AM 41.0 °F 34.7 °F 39.0 °F 93% 30.19 in 6.0 mi SW 10.4 mph - 0.01 in Rain Light Rain
12:53 PM 43.0 °F 39.5 °F 37.9 °F 82% 30.19 in 10.0 mi South 5.8 mph - 0.00 in   Overcast
1:28 PM 44.6 °F 41.4 °F 37.4 °F 76% 30.18 in 10.0 mi SSW 5.8 mph - N/A   Scattered Clouds
1:53 PM 44.1 °F 40.8 °F 37.9 °F 79% 30.19 in 10.0 mi SSW 5.8 mph - N/A   Clear
2:53 PM 45.0 °F 42.6 °F 36.0 °F 71% 30.18 in 10.0 mi SW 4.6 mph - N/A   Clear
3:53 PM 45.0 °F 43.5 °F 36.0 °F 71% 30.18 in 10.0 mi WSW 3.5 mph - N/A   Clear
4:53 PM 45.0 °F 43.5 °F 36.0 °F 71% 30.16 in 10.0 mi NW 3.5 mph - N/A   Clear
5:53 PM 43.0 °F 40.3 °F 37.0 °F 80% 30.15 in 10.0 mi North 4.6 mph - N/A   Clear
6:53 PM 37.9 °F 34.4 °F 36.0 °F 93% 30.14 in 10.0 mi North 4.6 mph - N/A   Clear
7:53 PM 36.0 °F 32.1 °F 35.1 °F 97% 30.13 in 10.0 mi North 4.6 mph - N/A   Clear
8:53 PM 35.1 °F 31.0 °F 35.1 °F 100% 30.12 in 10.0 mi North 4.6 mph - N/A   Scattered Clouds
9:53 PM 35.1 °F 30.1 °F 35.1 °F 100% 30.11 in 10.0 mi North 5.8 mph - N/A   Clear
10:22 PM 35.6 °F 29.9 °F 35.6 °F 100% 30.09 in 10.0 mi North 6.9 mph - N/A   Partly Cloudy
10:53 PM 37.0 °F 30.4 °F 37.0 °F 100% 30.09 in 10.0 mi North 9.2 mph - N/A   Scattered Clouds
11:46 PM 37.4 °F 31.4 °F 37.4 °F 100% 30.06 in 10.0 mi North 8.1 mph - N/A   Mostly Cloudy
11:53 PM 37.0 °F 30.4 °F 37.0 °F 100% 30.06 in 10.0 mi North 9.2 mph - N/A   Mostly Cloudy